Simultaneous Nadir Overpasses (SNOs) Predictions

Prediction of SNOs between GOES-16 and METOP-B Satellite Orbit:

Table of predicted SNOs for the next 14.0 days since TLE Epoch: 10/10/2025
Index Date Time (GOES-16) GOES-16 Lat,Lon METOP-B Lat,Lon Distance(km) Time Diff (sec)
1 10/11/2025 16:04:30 0.05,-104.72 0.40,-106.25 173.81 80
2 10/12/2025 15:46:37 0.06,-104.72 -0.70,-101.28 391.36 80
3 10/14/2025 04:05:48 -0.06,-104.65 -0.35,-105.92 144.86 80
4 10/15/2025 03:42:35 -0.06,-104.64 0.75,-100.95 420.41 80
5 10/16/2025 16:01:39 0.06,-104.70 0.24,-105.57 98.53 80
6 10/17/2025 15:43:46 0.06,-104.70 -0.87,-100.60 467.21 80
7 10/19/2025 04:02:55 -0.07,-104.64 -0.22,-105.23 67.90 80
8 10/20/2025 03:39:43 -0.07,-104.63 0.89,-100.26 497.90 80
9 10/21/2025 15:58:46 0.07,-104.69 0.10,-104.88 20.79 80
10 10/24/2025 03:57:23 -0.07,-104.63 -0.05,-104.54 10.19 80
